Location: Unspecified
(0.0000°N, 0.0000°E)
Time: 01:47:52
(UTC+00:00)

Envisat - Pass Details

Date: 21 March 2018
Orbit: 764 x 766 km, 98.2° (Epoch: 17 June)

Event Time Altitude Azimuth Distance (km) Brightness Sun altitude
Exits shadow 19:50:36 41° 10° (N) 1,095 3.6 -25.9°
Drops below altitude 10° 19:53:56 10° 356° (N) 2,290 5.5 -26.7°
Sets 19:56:14 0° 353° (N) 3,213 6.3 -27.3°
